Check out our new BloomSky Weather System.

Active alerts


No alerts


Thunder radar  blitzortung!


Rain radar more information rain snow radar


Visit our other weather sites:

Template documentation
and downloads

And another site



Weather Underground History page Text

Daily Summary for June 14, 2017 Units:  Metric    English   Both
« Previous Day
Next Day »
Daily Weekly Monthly Yearly Custom
  High: Low: Average:
Temperature: 33.8 °C 26 °C 29.6 °C
Dew Point: 25.8 °C 24.1 °C 24.8 °C
Humidity: 94 % 59 % 77 %
Wind Speed: 24.1 km/h 0 km/h 7.7 km/h
Wind Gust: 25.7 km/h - -
Wind:- - SSE
Pressure: 1015.1 hPa 1012.1 hPa -
Precipitation: 0 mm    
Historical Graphs
 
 
Tabular Data for June 14, 2017
Time Temperature Dew Point Pressure Wind Wind Speed Wind Gust Humidity Rainfall Rate (Hourly)
00:01 27.7 °C 25.3 °C 1013.1 hPa SSE 4.8 km/h 11.3 km/h 87 % 0 mm
00:06 27.7 °C 25.3 °C 1013.1 hPa SE 4.8 km/h 11.3 km/h 87 % 0 mm
00:11 27.6 °C 25.4 °C 1013.1 hPa East 6.4 km/h 14.5 km/h 88 % 0 mm
00:16 27.6 °C 25.4 °C 1013.1 hPa SSW 6.4 km/h 14.5 km/h 88 % 0 mm
00:21 27.6 °C 25.4 °C 1012.8 hPa SSE 11.3 km/h 14.5 km/h 88 % 0 mm
00:26 27.6 °C 25.4 °C 1013.1 hPa SSE 6.4 km/h 16.1 km/h 88 % 0 mm
00:31 27.6 °C 25.4 °C 1012.8 hPa SSE 8 km/h 16.1 km/h 88 % 0 mm
00:36 27.7 °C 25.5 °C 1012.8 hPa SE 6.4 km/h 16.1 km/h 88 % 0 mm
00:41 27.6 °C 25.4 °C 1012.8 hPa Calm   14.5 km/h 88 % 0 mm
00:46 27.6 °C 25.4 °C 1012.8 hPa SE 9.7 km/h 14.5 km/h 88 % 0 mm
00:51 27.6 °C 25.4 °C 1012.8 hPa South 6.4 km/h 16.1 km/h 88 % 0 mm
00:56 27.6 °C 25.4 °C 1012.8 hPa SSE 4.8 km/h 16.1 km/h 88 % 0 mm
01:01 27.6 °C 25.4 °C 1013.1 hPa SSE 6.4 km/h 16.1 km/h 88 % 0 mm
01:06 27.6 °C 25.4 °C 1013.1 hPa SE 6.4 km/h 12.9 km/h 88 % 0 mm
01:11 27.6 °C 25.4 °C 1012.8 hPa South 4.8 km/h 12.9 km/h 88 % 0 mm
01:16 27.5 °C 25.3 °C 1012.8 hPa South 1.6 km/h 11.3 km/h 88 % 0 mm
01:21 27.4 °C 25.2 °C 1012.8 hPa SSE 3.2 km/h 11.3 km/h 88 % 0 mm
01:26 27.4 °C 25.4 °C 1012.8 hPa SSE 3.2 km/h 9.7 km/h 89 % 0 mm
01:31 27.4 °C 25.4 °C 1012.8 hPa SE 6.4 km/h 9.7 km/h 89 % 0 mm
01:36 27.4 °C 25.4 °C 1012.8 hPa SSE 6.4 km/h 9.7 km/h 89 % 0 mm
01:41 27.3 °C 25.3 °C 1012.8 hPa South 3.2 km/h 9.7 km/h 89 % 0 mm
01:46 27.3 °C 25.3 °C 1012.8 hPa South 4.8 km/h 9.7 km/h 89 % 0 mm
01:52 27.3 °C 25.3 °C 1012.8 hPa SSW 6.4 km/h 14.5 km/h 89 % 0 mm
01:56 27.2 °C 25.2 °C 1012.4 hPa South 4.8 km/h 14.5 km/h 89 % 0 mm
02:02 27.2 °C 25.2 °C 1012.4 hPa South 6.4 km/h 14.5 km/h 89 % 0 mm
02:07 27.2 °C 25.2 °C 1012.4 hPa SE 4.8 km/h 17.7 km/h 89 % 0 mm
02:12 27.2 °C 25.2 °C 1012.4 hPa ESE 11.3 km/h 17.7 km/h 89 % 0 mm
02:17 27.2 °C 25.2 °C 1012.4 hPa SE 9.7 km/h 17.7 km/h 89 % 0 mm
02:22 27.1 °C 25.1 °C 1012.4 hPa SSE 3.2 km/h 16.1 km/h 89 % 0 mm
02:27 27.1 °C 25.1 °C 1012.4 hPa ESE 1.6 km/h 16.1 km/h 89 % 0 mm
02:32 27.1 °C 25.3 °C 1012.4 hPa SSE 3.2 km/h 16.1 km/h 90 % 0 mm
02:37 27 °C 25.2 °C 1012.4 hPa SE 8 km/h 16.1 km/h 90 % 0 mm
02:42 27 °C 25.2 °C 1012.1 hPa South 9.7 km/h 12.9 km/h 90 % 0 mm
02:47 26.9 °C 25.1 °C 1012.4 hPa SSE 9.7 km/h 12.9 km/h 90 % 0 mm
02:52 26.9 °C 25.1 °C 1012.4 hPa South 4.8 km/h 16.1 km/h 90 % 0 mm
02:57 26.9 °C 25.1 °C 1012.4 hPa South 8 km/h 16.1 km/h 90 % 0 mm
03:02 26.9 °C 25.1 °C 1012.1 hPa SE 4.8 km/h 16.1 km/h 90 % 0 mm
03:07 26.9 °C 25.1 °C 1012.1 hPa SSE 4.8 km/h 14.5 km/h 90 % 0 mm
03:17 26.9 °C 25.1 °C 1012.1 hPa South 6.4 km/h 14.5 km/h 90 % 0 mm
03:22 26.9 °C 25.1 °C 1012.1 hPa SSW 4.8 km/h 14.5 km/h 90 % 0 mm
03:27 26.9 °C 25.1 °C 1012.1 hPa SE 11.3 km/h 14.5 km/h 90 % 0 mm
03:32 26.9 °C 25.1 °C 1012.4 hPa SSE 3.2 km/h 12.9 km/h 90 % 0 mm
03:37 26.9 °C 25.1 °C 1012.4 hPa SW 9.7 km/h 12.9 km/h 90 % 0 mm
03:42 26.9 °C 25.3 °C 1012.4 hPa South 4.8 km/h 14.5 km/h 91 % 0 mm
03:47 26.9 °C 25.3 °C 1012.4 hPa SSE 6.4 km/h 14.5 km/h 91 % 0 mm
03:52 26.9 °C 25.3 °C 1012.4 hPa SSE 8 km/h 14.5 km/h 91 % 0 mm
03:57 26.8 °C 25.2 °C 1012.4 hPa SE 4.8 km/h 11.3 km/h 91 % 0 mm
04:02 26.8 °C 25.2 °C 1012.4 hPa SSE 4.8 km/h 11.3 km/h 91 % 0 mm
04:07 26.8 °C 25.2 °C 1012.4 hPa SSE 6.4 km/h 11.3 km/h 91 % 0 mm
04:12 26.8 °C 25.2 °C 1012.4 hPa SE 4.8 km/h 11.3 km/h 91 % 0 mm
04:17 26.8 °C 25.2 °C 1012.4 hPa SSE 6.4 km/h 11.3 km/h 91 % 0 mm
04:22 26.8 °C 25.2 °C 1012.4 hPa SSE 4.8 km/h 11.3 km/h 91 % 0 mm
04:27 26.8 °C 25.2 °C 1012.4 hPa South 6.4 km/h 9.7 km/h 91 % 0 mm
04:32 26.8 °C 25.2 °C 1012.4 hPa SSE 4.8 km/h 9.7 km/h 91 % 0 mm
04:37 26.8 °C 25.2 °C 1012.4 hPa ESE 8 km/h 12.9 km/h 91 % 0 mm
04:42 26.7 °C 25.1 °C 1012.4 hPa ESE 3.2 km/h 12.9 km/h 91 % 0 mm
04:47 26.7 °C 25.1 °C 1012.4 hPa ESE 4.8 km/h 12.9 km/h 91 % 0 mm
04:52 26.6 °C 25.2 °C 1012.4 hPa SE 3.2 km/h 11.3 km/h 92 % 0 mm
04:57 26.6 °C 25.2 °C 1012.4 hPa SSW 3.2 km/h 9.7 km/h 92 % 0 mm
05:02 26.6 °C 25.2 °C 1012.4 hPa SE 6.4 km/h 9.7 km/h 92 % 0 mm
05:07 26.5 °C 25.1 °C 1012.4 hPa South 4.8 km/h 8 km/h 92 % 0 mm
05:12 26.4 °C 25 °C 1012.4 hPa SSE 3.2 km/h 8 km/h 92 % 0 mm
05:17 26.4 °C 25 °C 1012.4 hPa SE 1.6 km/h 8 km/h 92 % 0 mm
05:22 26.4 °C 25 °C 1012.4 hPa SSE 4.8 km/h 8 km/h 92 % 0 mm
05:27 26.3 °C 25.1 °C 1012.4 hPa SE 6.4 km/h 9.7 km/h 93 % 0 mm
05:32 26.3 °C 25.1 °C 1012.4 hPa SSE 1.6 km/h 9.7 km/h 93 % 0 mm
05:37 26.3 °C 25.1 °C 1012.4 hPa SE 3.2 km/h 9.7 km/h 93 % 0 mm
05:42 26.2 °C 25 °C 1012.4 hPa East 4.8 km/h 8 km/h 93 % 0 mm
05:47 26.2 °C 25 °C 1012.8 hPa SE 4.8 km/h 8 km/h 93 % 0 mm
05:52 26.2 °C 25 °C 1012.8 hPa SE 4.8 km/h 8 km/h 93 % 0 mm
05:57 26.1 °C 24.9 °C 1012.8 hPa Calm   8 km/h 93 % 0 mm
06:02 26.1 °C 24.9 °C 1012.8 hPa SE 1.6 km/h 8 km/h 93 % 0 mm
06:07 26.1 °C 24.9 °C 1012.8 hPa SE 6.4 km/h 8 km/h 93 % 0 mm
06:12 26.1 °C 25.1 °C 1012.8 hPa ESE 4.8 km/h 8 km/h 94 % 0 mm
06:17 26.1 °C 25.1 °C 1012.8 hPa SSE 3.2 km/h 8 km/h 94 % 0 mm
06:22 26 °C 25 °C 1013.1 hPa SE 4.8 km/h 8 km/h 94 % 0 mm
06:27 26.1 °C 25.1 °C 1013.1 hPa ESE 6.4 km/h 6.4 km/h 94 % 0 mm
06:32 26 °C 25 °C 1013.1 hPa SE 3.2 km/h 9.7 km/h 94 % 0 mm
06:37 26.1 °C 25.1 °C 1013.1 hPa SE 3.2 km/h 9.7 km/h 94 % 0 mm
06:42 26.1 °C 25.1 °C 1013.1 hPa SSE 6.4 km/h 9.7 km/h 94 % 0 mm
06:47 26.1 °C 25.1 °C 1013.4 hPa SSE 3.2 km/h 8 km/h 94 % 0 mm
06:52 26.1 °C 25.1 °C 1013.4 hPa ESE 4.8 km/h 8 km/h 94 % 0 mm
06:57 26.2 °C 25.2 °C 1013.4 hPa ESE 3.2 km/h 8 km/h 94 % 0 mm
07:02 26.2 °C 25.2 °C 1013.4 hPa SE 3.2 km/h 11.3 km/h 94 % 0 mm
07:07 26.3 °C 25.1 °C 1013.4 hPa SSE 4.8 km/h 11.3 km/h 93 % 0 mm
07:12 26.5 °C 25.3 °C 1013.4 hPa SSE 3.2 km/h 11.3 km/h 93 % 0 mm
07:17 26.6 °C 25.2 °C 1013.4 hPa South 6.4 km/h 8 km/h 92 % 0 mm
07:22 26.7 °C 25.3 °C 1013.4 hPa South 4.8 km/h 12.9 km/h 92 % 0 mm
07:27 26.8 °C 25.2 °C 1013.8 hPa SSE 4.8 km/h 12.9 km/h 91 % 0 mm
07:32 26.9 °C 25.3 °C 1013.8 hPa SE 4.8 km/h 12.9 km/h 91 % 0 mm
07:37 27.1 °C 25.3 °C 1013.8 hPa ESE 8 km/h 12.9 km/h 90 % 0 mm
07:42 27.2 °C 25.4 °C 1013.8 hPa SSE 6.4 km/h 14.5 km/h 90 % 0 mm
07:48 27.3 °C 25.3 °C 1013.8 hPa SSE 6.4 km/h 14.5 km/h 89 % 0 mm
07:53 27.4 °C 25.4 °C 1013.8 hPa South 8 km/h 17.7 km/h 89 % 0 mm
07:58 27.6 °C 25.4 °C 1013.8 hPa SE 11.3 km/h 17.7 km/h 88 % 0 mm
08:03 27.7 °C 25.5 °C 1014.1 hPa SW 8 km/h 17.7 km/h 88 % 0 mm
08:08 27.9 °C 25.5 °C 1014.1 hPa SSE 4.8 km/h 14.5 km/h 87 % 0 mm
08:13 28.2 °C 25.8 °C 1014.1 hPa SSE 6.4 km/h 14.5 km/h 87 % 0 mm
08:18 28.3 °C 25.5 °C 1014.4 hPa SSE 6.4 km/h 14.5 km/h 85 % 0 mm
08:23 28.4 °C 25.4 °C 1014.4 hPa SE 12.9 km/h 20.9 km/h 84 % 0 mm
08:28 28.5 °C 25.3 °C 1014.4 hPa SSE 6.4 km/h 20.9 km/h 83 % 0 mm
08:33 28.7 °C 25.3 °C 1014.4 hPa South 6.4 km/h 20.9 km/h 82 % 0 mm
08:38 28.7 °C 25.3 °C 1014.4 hPa SE 9.7 km/h 17.7 km/h 82 % 0 mm
08:43 28.7 °C 25.1 °C 1014.4 hPa SSE 11.3 km/h 17.7 km/h 81 % 0 mm
08:48 28.6 °C 25.2 °C 1014.4 hPa SSE 3.2 km/h 19.3 km/h 82 % 0 mm
08:53 28.6 °C 25.2 °C 1014.8 hPa South 11.3 km/h 19.3 km/h 82 % 0 mm
08:58 28.7 °C 25.1 °C 1014.4 hPa South 6.4 km/h 19.3 km/h 81 % 0 mm
09:03 28.8 °C 25.2 °C 1014.4 hPa South 9.7 km/h 16.1 km/h 81 % 0 mm
09:08 29 °C 25 °C 1014.8 hPa SSE 11.3 km/h 16.1 km/h 79 % 0 mm
09:13 29.1 °C 25.1 °C 1014.8 hPa SSE 11.3 km/h 17.7 km/h 79 % 0 mm
09:18 29.2 °C 25.2 °C 1014.4 hPa SSE 6.4 km/h 19.3 km/h 79 % 0 mm
09:23 29.3 °C 25.1 °C 1014.8 hPa South 11.3 km/h 19.3 km/h 78 % 0 mm
09:24 29.3 °C 25.1 °C 1014.8 hPa SSE 8 km/h 19.3 km/h 78 % 0 mm
09:29 29.2 °C 24.7 °C 1014.4 hPa SSW 8 km/h 19.3 km/h 77 % 0 mm
09:34 29.2 °C 25 °C 1014.8 hPa SSE 6.4 km/h 20.9 km/h 78 % 0 mm
09:39 29.3 °C 25.1 °C 1014.4 hPa SSE 4.8 km/h 20.9 km/h 78 % 0 mm
09:44 29.9 °C 25.6 °C 1014.8 hPa SW 11.3 km/h 20.9 km/h 78 % 0 mm
09:49 30.2 °C 25.3 °C 1014.8 hPa South 9.7 km/h 17.7 km/h 75 % 0 mm
09:54 30.3 °C 25.1 °C 1014.8 hPa SSW 11.3 km/h 17.7 km/h 74 % 0 mm
09:59 30.3 °C 24.9 °C 1014.4 hPa SE 9.7 km/h 17.7 km/h 73 % 0 mm
10:04 30.4 °C 25.2 °C 1014.4 hPa South 6.4 km/h 17.7 km/h 74 % 0 mm
10:09 30.7 °C 25.3 °C 1014.4 hPa ESE 11.3 km/h 16.1 km/h 73 % 0 mm
10:14 30.9 °C 25 °C 1014.8 hPa SE 8 km/h 19.3 km/h 71 % 0 mm
10:19 30.7 °C 24.6 °C 1014.8 hPa SE 8 km/h 19.3 km/h 70 % 0 mm
10:24 30.7 °C 24.6 °C 1014.8 hPa ESE 9.7 km/h 19.3 km/h 70 % 0 mm
10:29 30.4 °C 24.3 °C 1014.8 hPa SSE 8 km/h 17.7 km/h 70 % 0 mm
10:34 30.4 °C 24.5 °C 1014.8 hPa SE 8 km/h 20.9 km/h 71 % 0 mm
10:39 30.3 °C 24.2 °C 1014.8 hPa South 9.7 km/h 20.9 km/h 70 % 0 mm
10:44 30.3 °C 24.7 °C 1014.8 hPa South 6.4 km/h 20.9 km/h 72 % 0 mm
10:49 30.3 °C 24.7 °C 1014.8 hPa South 8 km/h 17.7 km/h 72 % 0 mm
10:54 30.3 °C 24.4 °C 1014.8 hPa SE 11.3 km/h 17.7 km/h 71 % 0 mm
10:59 30.2 °C 24.4 °C 1014.8 hPa SSE 6.4 km/h 14.5 km/h 71 % 0 mm
11:04 30.1 °C 24.3 °C 1014.8 hPa SSW 8 km/h 14.5 km/h 71 % 0 mm
11:09 30.1 °C 24.5 °C 1014.8 hPa South 8 km/h 12.9 km/h 72 % 0 mm
11:14 30.2 °C 24.4 °C 1014.8 hPa SSE 8 km/h 12.9 km/h 71 % 0 mm
11:19 30.4 °C 24.5 °C 1014.8 hPa SE 3.2 km/h 12.9 km/h 71 % 0 mm
11:24 31 °C 25.4 °C 1014.8 hPa East 8 km/h 12.9 km/h 72 % 0 mm
11:29 31.4 °C 24.8 °C 1014.8 hPa South 11.3 km/h 11.3 km/h 68 % 0 mm
11:34 31.6 °C 25.2 °C 1014.8 hPa SSE 3.2 km/h 12.9 km/h 69 % 0 mm
11:39 32.1 °C 25.4 °C 1014.8 hPa East 8 km/h 14.5 km/h 68 % 0 mm
11:44 32 °C 24.8 °C 1014.8 hPa SSW 6.4 km/h 14.5 km/h 66 % 0 mm
11:50 31.9 °C 24.5 °C 1014.8 hPa ESE 6.4 km/h 16.1 km/h 65 % 0 mm
11:54 31.9 °C 24.8 °C 1014.4 hPa East 9.7 km/h 16.1 km/h 66 % 0 mm
11:59 32.2 °C 24.5 °C 1014.4 hPa ESE 8 km/h 16.1 km/h 64 % 0 mm
12:05 32.1 °C 24.4 °C 1014.4 hPa ESE 8 km/h 14.5 km/h 64 % 0 mm
12:09 32.1 °C 24.4 °C 1014.4 hPa SSE 8 km/h 14.5 km/h 64 % 0 mm
12:15 32.4 °C 24.4 °C 1014.4 hPa ESE 9.7 km/h 17.7 km/h 63 % 0 mm
12:20 32.8 °C 25.1 °C 1014.4 hPa ESE 6.4 km/h 20.9 km/h 64 % 0 mm
12:25 33 °C 24.2 °C 1014.4 hPa SE 12.9 km/h 20.9 km/h 60 % 0 mm
12:30 33.2 °C 25.2 °C 1014.4 hPa SSE 11.3 km/h 20.9 km/h 63 % 0 mm
12:35 33.2 °C 24.7 °C 1014.4 hPa SE 9.7 km/h 20.9 km/h 61 % 0 mm
12:40 33.1 °C 24.6 °C 1014.4 hPa SE 9.7 km/h 20.9 km/h 61 % 0 mm
12:45 33.1 °C 24.8 °C 1014.4 hPa SSE 4.8 km/h 19.3 km/h 62 % 0 mm
12:50 33.1 °C 24.3 °C 1014.4 hPa ESE 19.3 km/h 19.3 km/h 60 % 0 mm
12:55 32.7 °C 24.2 °C 1014.4 hPa South 12.9 km/h 22.5 km/h 61 % 0 mm
13:00 32.1 °C 24.4 °C 1014.4 hPa South 6.4 km/h 22.5 km/h 64 % 0 mm
13:05 31.6 °C 24.5 °C 1014.4 hPa SSE 11.3 km/h 22.5 km/h 66 % 0 mm
13:10 31.3 °C 24.4 °C 1014.4 hPa SSW 8 km/h 20.9 km/h 67 % 0 mm
13:15 31.4 °C 24.8 °C 1014.4 hPa SSW 6.4 km/h 14.5 km/h 68 % 0 mm
13:20 31.6 °C 24.7 °C 1014.4 hPa South 4.8 km/h 14.5 km/h 67 % 0 mm
13:25 31.8 °C 24.9 °C 1014.1 hPa SSW 4.8 km/h 11.3 km/h 67 % 0 mm
13:30 31.9 °C 24.5 °C 1014.1 hPa SE 3.2 km/h 11.3 km/h 65 % 0 mm
13:35 32.3 °C 25.4 °C 1014.1 hPa SE 3.2 km/h 11.3 km/h 67 % 0 mm
13:40 32.8 °C 24.6 °C 1014.1 hPa SSW 3.2 km/h 14.5 km/h 62 % 0 mm
13:45 33 °C 24.7 °C 1014.1 hPa South 12.9 km/h 14.5 km/h 62 % 0 mm
13:50 32.9 °C 24.4 °C 1013.8 hPa ESE 11.3 km/h 17.7 km/h 61 % 0 mm
13:55 32.7 °C 24.2 °C 1013.8 hPa East 6.4 km/h 17.7 km/h 61 % 0 mm
14:00 32.7 °C 24.7 °C 1013.8 hPa SSW 4.8 km/h 17.7 km/h 63 % 0 mm
14:05 32.6 °C 24.9 °C 1013.8 hPa SE 8 km/h 20.9 km/h 64 % 0 mm
14:10 32.3 °C 24.4 °C 1013.8 hPa SSE 8 km/h 20.9 km/h 63 % 0 mm
14:15 32.7 °C 25 °C 1013.8 hPa SE 12.9 km/h 20.9 km/h 64 % 0 mm
14:20 32.7 °C 24.5 °C 1013.8 hPa SSE 6.4 km/h 20.9 km/h 62 % 0 mm
14:25 32.7 °C 24.5 °C 1013.8 hPa ESE 9.7 km/h 20.9 km/h 62 % 0 mm
14:30 32.7 °C 24.7 °C 1013.8 hPa SSE 6.4 km/h 20.9 km/h 63 % 0 mm
14:35 33.2 °C 24.9 °C 1013.8 hPa ESE 12.9 km/h 16.1 km/h 62 % 0 mm
14:40 33.4 °C 24.6 °C 1013.4 hPa SE 11.3 km/h 17.7 km/h 60 % 0 mm
14:45 33.3 °C 24.2 °C 1013.4 hPa SSE 6.4 km/h 17.7 km/h 59 % 0 mm
14:50 33.2 °C 24.4 °C 1013.4 hPa SSE 16.1 km/h 19.3 km/h 60 % 0 mm
14:55 33.3 °C 24.8 °C 1013.4 hPa ESE 12.9 km/h 19.3 km/h 61 % 0 mm
15:00 33.5 °C 24.7 °C 1013.4 hPa ESE 12.9 km/h 19.3 km/h 60 % 0 mm
15:05 33.3 °C 24.8 °C 1013.4 hPa SSW 8 km/h 20.9 km/h 61 % 0 mm
15:10 33.4 °C 24.6 °C 1013.4 hPa SE 20.9 km/h 22.5 km/h 60 % 0 mm
15:15 33.5 °C 24.4 °C 1013.4 hPa ESE 14.5 km/h 22.5 km/h 59 % 0 mm
15:20 33.6 °C 25 °C 1013.1 hPa SE 16.1 km/h 24.1 km/h 61 % 0 mm
15:25 33.7 °C 25.1 °C 1013.1 hPa SE 11.3 km/h 24.1 km/h 61 % 0 mm
15:30 33.8 °C 24.9 °C 1013.1 hPa SE 14.5 km/h 24.1 km/h 60 % 0 mm
15:35 33.4 °C 25.1 °C 1013.1 hPa SE 16.1 km/h 25.7 km/h 62 % 0 mm
15:40 33.3 °C 24.8 °C 1013.1 hPa SSE 12.9 km/h 25.7 km/h 61 % 0 mm
15:45 33.1 °C 24.6 °C 1013.1 hPa ESE 19.3 km/h 25.7 km/h 61 % 0 mm
15:50 32.9 °C 24.6 °C 1013.1 hPa SE 12.9 km/h 24.1 km/h 62 % 0 mm
15:55 33.1 °C 25.1 °C 1013.1 hPa South 20.9 km/h 24.1 km/h 63 % 0 mm
16:00 33.3 °C 25.3 °C 1013.1 hPa East 4.8 km/h 24.1 km/h 63 % 0 mm
16:05 33.5 °C 24.9 °C 1013.1 hPa SSE 9.7 km/h 20.9 km/h 61 % 0 mm
16:10 33.1 °C 24.8 °C 1013.1 hPa SSE 11.3 km/h 20.9 km/h 62 % 0 mm
16:15 32.9 °C 25.2 °C 1013.1 hPa SE 11.3 km/h 22.5 km/h 64 % 0 mm
16:20 33.1 °C 24.8 °C 1012.8 hPa SSE 12.9 km/h 22.5 km/h 62 % 0 mm
16:25 33.1 °C 24.8 °C 1012.8 hPa ESE 22.5 km/h 22.5 km/h 62 % 0 mm
16:30 33 °C 24.7 °C 1012.8 hPa ESE 11.3 km/h 24.1 km/h 62 % 0 mm
16:35 33.1 °C 25.1 °C 1012.8 hPa South 11.3 km/h 24.1 km/h 63 % 0 mm
16:40 33.2 °C 24.9 °C 1012.8 hPa SW 24.1 km/h 24.1 km/h 62 % 0 mm
16:45 33.3 °C 24.5 °C 1012.8 hPa SE 16.1 km/h 24.1 km/h 60 % 0 mm
16:50 33.3 °C 24.8 °C 1012.4 hPa South 11.3 km/h 25.7 km/h 61 % 0 mm
16:55 33.2 °C 24.7 °C 1012.4 hPa ESE 8 km/h 25.7 km/h 61 % 0 mm
17:00 33.1 °C 24.3 °C 1012.4 hPa SE 9.7 km/h 25.7 km/h 60 % 0 mm
17:05 32.8 °C 24.3 °C 1012.4 hPa SE 4.8 km/h 22.5 km/h 61 % 0 mm
17:10 32.8 °C 24.8 °C 1012.4 hPa SSW 6.4 km/h 20.9 km/h 63 % 0 mm
17:15 32.8 °C 24.3 °C 1012.4 hPa SSE 4.8 km/h 20.9 km/h 61 % 0 mm
17:21 32.9 °C 24.4 °C 1012.4 hPa South 6.4 km/h 19.3 km/h 61 % 0 mm
17:26 32.9 °C 24.4 °C 1012.4 hPa South 9.7 km/h 19.3 km/h 61 % 0 mm
17:31 32.8 °C 24.6 °C 1012.4 hPa SSE 11.3 km/h 19.3 km/h 62 % 0 mm
17:41 32.6 °C 24.4 °C 1012.4 hPa SSW 12.9 km/h 20.9 km/h 62 % 0 mm
17:46 32.4 °C 24.4 °C 1012.4 hPa SSE 11.3 km/h 20.9 km/h 63 % 0 mm
17:51 32.3 °C 24.6 °C 1012.4 hPa South 11.3 km/h 20.9 km/h 64 % 0 mm
17:52 32.3 °C 24.6 °C 1012.4 hPa SE 8 km/h 20.9 km/h 64 % 0 mm
17:57 32.4 °C 25 °C 1012.4 hPa South 8 km/h 24.1 km/h 65 % 0 mm
18:02 32.5 °C 24.5 °C 1012.1 hPa East 6.4 km/h 24.1 km/h 63 % 0 mm
18:07 32.3 °C 24.6 °C 1012.1 hPa SE 12.9 km/h 24.1 km/h 64 % 0 mm
18:12 32.4 °C 25 °C 1012.1 hPa SSE 11.3 km/h 19.3 km/h 65 % 0 mm
18:17 32.4 °C 24.7 °C 1012.1 hPa SSE 6.4 km/h 20.9 km/h 64 % 0 mm
18:22 32.2 °C 24.5 °C 1012.1 hPa SE 8 km/h 20.9 km/h 64 % 0 mm
18:27 32.1 °C 24.7 °C 1012.1 hPa SE 11.3 km/h 20.9 km/h 65 % 0 mm
18:32 32.1 °C 24.7 °C 1012.1 hPa SE 19.3 km/h 20.9 km/h 65 % 0 mm
18:37 32.1 °C 24.7 °C 1012.1 hPa SE 17.7 km/h 22.5 km/h 65 % 0 mm
18:38 32.1 °C 24.7 °C 1012.1 hPa South 14.5 km/h 22.5 km/h 65 % 0 mm
18:43 32.1 °C 24.7 °C 1012.1 hPa SW 9.7 km/h 22.5 km/h 65 % 0 mm
18:48 32.1 °C 24.4 °C 1012.1 hPa SE 9.7 km/h 22.5 km/h 64 % 0 mm
18:53 32.1 °C 24.7 °C 1012.1 hPa SSE 11.3 km/h 22.5 km/h 65 % 0 mm
18:58 32.1 °C 24.7 °C 1012.1 hPa SE 6.4 km/h 22.5 km/h 65 % 0 mm
19:03 31.9 °C 24.5 °C 1012.1 hPa SSE 14.5 km/h 19.3 km/h 65 % 0 mm
19:08 31.8 °C 24.4 °C 1012.1 hPa SSE 9.7 km/h 24.1 km/h 65 % 0 mm
19:13 31.8 °C 24.7 °C 1012.1 hPa SSE 9.7 km/h 24.1 km/h 66 % 0 mm
19:18 31.8 °C 24.7 °C 1012.1 hPa ESE 8 km/h 24.1 km/h 66 % 0 mm
19:23 31.7 °C 24.3 °C 1012.1 hPa SSE 11.3 km/h 24.1 km/h 65 % 0 mm
19:28 31.4 °C 24.3 °C 1012.1 hPa SSE 9.7 km/h 16.1 km/h 66 % 0 mm
19:33 31.2 °C 24.1 °C 1012.1 hPa South 6.4 km/h 19.3 km/h 66 % 0 mm
19:38 31.1 °C 24.5 °C 1012.1 hPa SSE 11.3 km/h 19.3 km/h 68 % 0 mm
19:43 30.9 °C 24.3 °C 1012.1 hPa South 8 km/h 19.3 km/h 68 % 0 mm
19:48 30.8 °C 24.4 °C 1012.1 hPa SSE 14.5 km/h 16.1 km/h 69 % 0 mm
19:53 30.7 °C 24.4 °C 1012.1 hPa SSE 4.8 km/h 19.3 km/h 69 % 0 mm
19:58 30.6 °C 24.3 °C 1012.4 hPa SE 16.1 km/h 22.5 km/h 69 % 0 mm
20:03 30.4 °C 24.1 °C 1012.4 hPa SSE 8 km/h 22.5 km/h 69 % 0 mm
20:08 30.3 °C 24.2 °C 1012.4 hPa SW 6.4 km/h 22.5 km/h 70 % 0 mm
20:13 30.2 °C 24.1 °C 1012.4 hPa SSE 9.7 km/h 22.5 km/h 70 % 0 mm
20:18 30.2 °C 24.4 °C 1012.4 hPa SE 17.7 km/h 19.3 km/h 71 % 0 mm
20:23 30.1 °C 24.3 °C 1012.4 hPa SE 6.4 km/h 20.9 km/h 71 % 0 mm
20:28 29.9 °C 24.1 °C 1012.4 hPa SSE 12.9 km/h 20.9 km/h 71 % 0 mm
20:33 29.8 °C 24.2 °C 1012.4 hPa SE 9.7 km/h 20.9 km/h 72 % 0 mm
20:38 29.8 °C 24.4 °C 1012.4 hPa SSE 8 km/h 20.9 km/h 73 % 0 mm
20:43 29.6 °C 24.2 °C 1012.8 hPa SSE 11.3 km/h 19.3 km/h 73 % 0 mm
20:48 29.5 °C 24.4 °C 1012.8 hPa ESE 8 km/h 17.7 km/h 74 % 0 mm
20:53 29.5 °C 24.4 °C 1012.8 hPa SE 8 km/h 16.1 km/h 74 % 0 mm
20:55 29.4 °C 24.3 °C 1012.8 hPa ESE 11.3 km/h 16.1 km/h 74 % 0 mm
21:00 29.4 °C 24.5 °C 1012.8 hPa SSE 12.9 km/h 20.9 km/h 75 % 0 mm
21:05 29.3 °C 24.4 °C 1012.8 hPa SSE 8 km/h 20.9 km/h 75 % 0 mm
21:10 29.2 °C 24.3 °C 1012.8 hPa SE 6.4 km/h 20.9 km/h 75 % 0 mm
21:15 29.1 °C 24.4 °C 1012.8 hPa SE 6.4 km/h 14.5 km/h 76 % 0 mm
21:20 29 °C 24.6 °C 1012.8 hPa ESE 8 km/h 12.9 km/h 77 % 0 mm
21:25 28.9 °C 24.5 °C 1013.1 hPa South 12.9 km/h 19.3 km/h 77 % 0 mm
21:30 28.8 °C 24.4 °C 1013.1 hPa SE 9.7 km/h 19.3 km/h 77 % 0 mm
21:35 28.8 °C 24.4 °C 1013.1 hPa SE 6.4 km/h 19.3 km/h 77 % 0 mm
21:40 28.7 °C 24.5 °C 1013.4 hPa SE 9.7 km/h 19.3 km/h 78 % 0 mm
21:45 28.6 °C 24.4 °C 1013.4 hPa SSE 6.4 km/h 16.1 km/h 78 % 0 mm
21:50 28.6 °C 24.4 °C 1013.4 hPa SSE 3.2 km/h 16.1 km/h 78 % 0 mm
21:55 28.4 °C 24.4 °C 1013.8 hPa SSE 3.2 km/h 11.3 km/h 79 % 0 mm
22:00 28.4 °C 24.6 °C 1013.8 hPa SSE 1.6 km/h 11.3 km/h 80 % 0 mm
22:02 28.4 °C 24.6 °C 1013.8 hPa SSE 4.8 km/h 11.3 km/h 80 % 0 mm
22:07 28.3 °C 24.7 °C 1013.8 hPa SSE 4.8 km/h 9.7 km/h 81 % 0 mm
22:12 28.3 °C 24.7 °C 1013.8 hPa SSE 8 km/h 9.7 km/h 81 % 0 mm
22:17 28.2 °C 24.8 °C 1014.1 hPa South 3.2 km/h 9.7 km/h 82 % 0 mm
22:22 28.1 °C 24.7 °C 1014.4 hPa SE 6.4 km/h 9.7 km/h 82 % 0 mm
22:27 28 °C 24.8 °C 1014.4 hPa SSW 6.4 km/h 9.7 km/h 83 % 0 mm
22:32 27.9 °C 24.7 °C 1014.4 hPa SSW 3.2 km/h 9.7 km/h 83 % 0 mm
22:37 27.8 °C 24.6 °C 1014.4 hPa South 4.8 km/h 9.7 km/h 83 % 0 mm
22:42 27.8 °C 24.8 °C 1014.4 hPa SSE 3.2 km/h 9.7 km/h 84 % 0 mm
22:47 27.7 °C 24.7 °C 1014.8 hPa SE 4.8 km/h 9.7 km/h 84 % 0 mm
22:52 27.7 °C 24.7 °C 1014.8 hPa SSE 3.2 km/h 9.7 km/h 84 % 0 mm
22:57 27.6 °C 24.6 °C 1014.8 hPa South 3.2 km/h 8 km/h 84 % 0 mm
23:02 27.6 °C 24.6 °C 1014.8 hPa South 3.2 km/h 8 km/h 84 % 0 mm
23:07 27.5 °C 24.6 °C 1014.8 hPa SSW 4.8 km/h 8 km/h 84 % 0 mm
23:12 27.4 °C 24.7 °C 1014.8 hPa SSE 3.2 km/h 8 km/h 85 % 0 mm
23:17 27.4 °C 24.5 °C 1014.8 hPa SE 1.6 km/h 8 km/h 84 % 0 mm
23:22 27.4 °C 24.7 °C 1015.1 hPa South 1.6 km/h 8 km/h 85 % 0 mm
23:27 27.3 °C 24.6 °C 1015.1 hPa South 3.2 km/h 6.4 km/h 85 % 0 mm
23:33 27.3 °C 24.6 °C 1015.1 hPa SSE 3.2 km/h 6.4 km/h 85 % 0 mm
23:37 27.2 °C 24.7 °C 1014.8 hPa SW 4.8 km/h 6.4 km/h 86 % 0 mm
23:43 27.2 °C 24.7 °C 1014.8 hPa South 3.2 km/h 6.4 km/h 86 % 0 mm
23:48 27.1 °C 24.6 °C 1014.8 hPa SE 3.2 km/h 6.4 km/h 86 % 0 mm
23:53 27.1 °C 24.6 °C 1015.1 hPa SSW 1.6 km/h 6.4 km/h 86 % 0 mm
23:58 26.9 °C 24.4 °C 1015.1 hPa SSE 4.8 km/h 6.4 km/h 86 % 0 mm
Spring, Texas: Villages of Bridgestone
Compliments of Weather Underground - 2.75 mb

Script developed by  Jim McMurry - jmcmurry@mwt.net Adapted for the template by  Wim van der Kuil - Leuven-Template.eu

You find our weather info also at:

UK Metoffice

WeatherCloud

Weather Underground

Mid-South Weather Network

AWEKAS

Citizen Weather Observer Program (CWOP)

HAMweather, WeatherForYou, PWS Weather

Equipment we use:

Weather-station
Davis Vantage Vue

Weather-program
Meteohub

Weather-server
Debian 7.9 x86 (Guest)

Provider
DreamHost

Davis Vantage Vue

Meteohub

Debian 7.9 x86 (Guest)

DreamHost